Location: Caltech
(34.1382°N, 118.1253°W)
Time: 13:48:30
(UTC-07:00)

ASTRO E2 - Visible Passes

Search period start: 29 March 2015 00:00
Search period end: 08 April 2015 00:00
Orbit: 526 x 533 km, 31.4° (Epoch: 29 March)

Date Brightness Start Highest point End Pass type
(mag) Time Alt. Az. Time Alt. Az. Time Alt. Az.
29 Mar 3.0 05:07:38 48° SSW 05:07:41 48° S 05:11:36 10° ESE visible
30 Mar 3.6 04:55:18 38° SSE 04:55:18 38° SSE 04:58:20 10° ESE visible
31 Mar 4.4 04:43:01 25° SE 04:43:01 25° SE 04:45:01 10° SE visible
01 Apr 5.2 04:30:51 15° SE 04:30:51 15° SE 04:31:39 10° SE visible
01 Apr 4.9 06:06:49 10° SW 06:08:16 12° SSW 06:09:38 10° S visible
05 Apr 4.9 20:37:04 10° S 20:38:02 13° S 20:38:02 13° S visible
06 Apr 4.4 20:23:09 10° SSW 20:25:51 17° SSE 20:26:04 17° SSE visible
07 Apr 4.2 20:09:22 10° SSW 20:12:26 21° SSE 20:13:59 17° SE visible
07 Apr 5.6 21:48:56 10° WSW 21:49:10 11° WSW 21:49:10 11° WSW visible
